Flag for U.S.A. Weather past 2 weeks in Elizabeth, New Jersey, U.S.A.

Now
62 °F

Broken clouds.


Feels Like: 62 °F
Forecast: 56 / 67 °F
Wind: 12 mph from Northeast

Location: Newark International Airport

Current Time: Sep 19, 2014 at 12:52:31 PM

Latest Report: Sep 19, 2014 at 11:51 AM


Visibility: 10 mi

Pressure: 30.34 "Hg

Humidity: 52%

Dew point: 44 °F

Location of ElizabethLocation

Historic Weather in Elizabeth — Graph

°F

Elizabeth temperature yesterday

Maximum temperature yesterday: 77 °F (at 1:51 PM)
Minimum temperature yesterday: 54 °F (at 5:51 AM)
Average temperature yesterday: 67 °F

Past Weeks' High & Low Weather Summary

 TemperatureHumidityPressure
High93 °F (Sep 6, 2:51 PM)97% (Sep 13, 7:51 PM)30.34 "Hg (Sep 13, 7:51 PM)
Low53 °F (Sep 14, 6:51 AM)32% (Sep 17, 2:51 PM)29.82 "Hg (Sep 11, 3:51 PM)
Average69 °F66%30.09 "Hg
* Reported Sep 4 11:51 AM — Sep 19 11:51 AM, Elizabeth, Weather by CustomWeather, © 2014

Note: Actual official high and low records may vary slightly from our data, if they occured in-between our weather recording intervals... More about our weather records

Advertising

Elizabeth weather history for previous 24 hours

 ConditionsComfort  
Time TempWeatherWind HumidityBarometerVisibility
11:51 AM
Sep 19
62 °FBroken clouds.12 mph52%30.34 "Hg10 mi
10:51 AM61 °FPartly sunny.9 mph48%30.34 "Hg10 mi
9:51 AM59 °FBroken clouds.12 mph48%30.33 "Hg10 mi
8:51 AM57 °FScattered clouds.16 mph51%30.31 "Hg10 mi
7:51 AM54 °FBroken clouds.13 mph77%30.29 "Hg10 mi
6:51 AM54 °FPartly cloudy.16 mph77%30.26 "Hg10 mi
5:51 AM56 °FPassing clouds.14 mph72%30.23 "Hg10 mi
4:51 AM57 °FPassing clouds.12 mph72%30.20 "Hg10 mi
3:51 AM58 °FClear.13 mph72%30.17 "Hg10 mi
2:51 AM59 °FClear.13 mph72%30.16 "Hg10 mi
1:51 AM60 °FPassing clouds.12 mph69%30.15 "Hg10 mi
12:51 AM61 °FPassing clouds.12 mph67%30.12 "Hg10 mi
11:51 PM
Sep 18
63 °FPassing clouds.13 mph60%30.10 "Hg10 mi
10:51 PM67 °FPassing clouds.12 mph47%30.08 "Hg10 mi
9:51 PM69 °FPassing clouds.8 mph41%30.06 "Hg10 mi
8:51 PM71 °FPassing clouds.9 mph38%30.04 "Hg10 mi
7:51 PM72 °FPassing clouds.9 mph37%30.01 "Hg10 mi
6:51 PM73 °FScattered clouds.10 mph34%29.99 "Hg10 mi
5:51 PM75 °FScattered clouds.9 mph33%29.99 "Hg10 mi
4:51 PM76 °FScattered clouds.6 mph33%29.98 "Hg10 mi
3:51 PM75 °FScattered clouds.13 mph33%29.98 "Hg10 mi
2:51 PM77 °FScattered clouds.8 mph32%29.97 "Hg10 mi
1:51 PM77 °FScattered clouds.8 mph35%29.98 "Hg10 mi
12:51 PM76 °FScattered clouds.6 mph36%29.99 "Hg10 mi
Weather by CustomWeather, © 2014

See weather overviewHow to use our weather pages